Find Starlink 3930

NORAD ID: 52568 Int'l Des: 2022-051 Owner: SPXS Country: US Constellation: starlink operational
LEOCIRCULAR

当前视图

正在加载3D地球...

About Starlink 3930

Starlink 3930 (NORAD 52568) is a starlink constellation satellite (v1.5) launched May 13, 2022 by SPXS of US. It operates in LEO, CIRCULAR orbit with a mass of 297.00 kg.

关于 Starlink 3930

正在加载描述...

即将过境

Passes for default location (London). Set your location on the main map for personalized predictions.

高度历史

Loading altitude history...

两行轨道根数

1 52568U 22051AM 26171.41668980 .00081790 00000-0 38957-2 0 9994
2 52568 53.1589 17.6344 0000468 102.1419 288.7859 15.18433460 5771
Epoch: Jun 20, 2026 • Age: 43 hours

当前状态

高度 514.6 km
速度 7.61 km/s
星下点 46.83°N, 79.7°E
发射日期 May 13, 2022
运行时间 4.1 years
类型 internet

技术详情

分类 Payload
质量 297.00 kg
干质量 275.00 kg
总质量 297.00 kg
长度 0.20 m
直径 2.80 m
跨度 9.00 m
形状 Box + pan
制造商 SPXS
平台类型 Starlink
阶段状态 In Orbit
所有者/国家 SPXS/US

Most Searched